Flag for U.S.A. Weather past 2 weeks in St. George, Utah, U.S.A.

Now
90 °F

Sunny.


Feels Like: 87 °F
Forecast: 71 / 93 °F
Wind: 5 mph from North

Location: Saint George

Current Time: Jul 7, 2015 at 2:19:18 PM

Latest Report: Jul 7, 2015 at 1:55 PM


Visibility: 10 mi

Pressure: 30.00 "Hg (27.30 "Hg at 842m altitude)

Humidity: 29%

Dew point: 54 °F

Location of St. GeorgeLocation

Historic Weather in St. George — Graph

°F

St. George temperature yesterday

Maximum temperature yesterday: 91 °F (at 4:35 PM)
Minimum temperature yesterday: 72 °F (at 11:55 PM)
Average temperature yesterday: 83 °F

Past Weeks' High & Low Weather Summary

 TemperatureHumidityPressure
High109 °F (Jun 26, 3:35 PM)78% (Jul 7, 3:15 AM)30.10 "Hg (Jul 7, 3:15 AM)
Low70 °F (Jul 7, 3:15 AM)9% (Jun 23, 10:15 PM)29.81 "Hg (Jul 1, 5:55 PM)
Average90 °F23%29.96 "Hg
* Reported Jun 22 1:15 PM — Jul 7 1:15 PM, St. George, Weather by CustomWeather, © 2015

Note: Actual official high and low records may vary slightly from our data, if they occured in-between our weather recording intervals... More about our weather records

Advertising

St. George weather history for previous 24 hours

 ConditionsComfort  
Time TempWeatherWind HumidityBarometerVisibility
1:15 PM
Tue, Jul 7
84 °FSunny.7 mph37%30.03 "Hg10 mi
12:55 PM84 °FSunny.3 mph37%30.04 "Hg10 mi
12:35 PM81 °FSunny.No wind45%30.04 "Hg10 mi
12:15 PM79 °FSunny.5 mph48%30.06 "Hg10 mi
11:55 AM79 °FSunny.5 mph48%30.06 "Hg10 mi
11:35 AM79 °FPassing clouds.5 mph48%30.06 "Hg10 mi
11:15 AM77 °FPassing clouds.3 mph51%30.06 "Hg10 mi
10:55 AM75 °FScattered clouds.3 mph54%30.07 "Hg10 mi
10:35 AM75 °FPassing clouds.6 mph54%30.07 "Hg10 mi
10:15 AM75 °FPassing clouds.No wind57%30.07 "Hg10 mi
9:55 AM75 °FPassing clouds.No wind57%30.07 "Hg10 mi
9:35 AM75 °FSunny.5 mph54%30.07 "Hg10 mi
9:15 AM73 °FPassing clouds.6 mph57%30.07 "Hg10 mi
8:55 AM73 °FPartly sunny.6 mph57%30.07 "Hg10 mi
8:35 AM73 °FScattered clouds.No wind57%30.06 "Hg10 mi
8:15 AM72 °FPassing clouds.5 mph69%30.06 "Hg10 mi
7:55 AM72 °FSunny.3 mph73%30.06 "Hg10 mi
7:35 AM72 °FSunny.5 mph69%30.06 "Hg10 mi
7:15 AM72 °FPassing clouds.No wind69%30.06 "Hg10 mi
6:55 AM72 °FPassing clouds.6 mph73%30.06 "Hg10 mi
6:35 AM70 °FOvercast.No wind78%30.05 "Hg10 mi
6:15 AM72 °FPassing clouds.No wind69%30.06 "Hg10 mi
5:55 AM72 °FPassing clouds.5 mph69%30.06 "Hg10 mi
5:35 AM72 °FOvercast.5 mph69%30.05 "Hg10 mi
5:15 AM72 °FOvercast.6 mph65%30.05 "Hg10 mi
4:55 AM72 °FPassing clouds.6 mph69%30.03 "Hg10 mi
4:35 AM70 °FPassing clouds.6 mph73%30.03 "Hg10 mi
4:15 AM72 °FPassing clouds.5 mph69%30.03 "Hg10 mi
3:55 AM72 °FPassing clouds.6 mph69%30.04 "Hg10 mi
3:35 AM72 °FPassing clouds.8 mph69%30.03 "Hg10 mi
3:15 AM70 °FPassing clouds.6 mph78%30.04 "Hg10 mi
2:55 AM72 °FClear.No wind69%30.04 "Hg10 mi
2:35 AM72 °FClear.7 mph69%30.04 "Hg10 mi
2:15 AM72 °FClear.5 mph69%30.04 "Hg10 mi
1:55 AM72 °FPassing clouds.7 mph69%30.04 "Hg10 mi
1:35 AM72 °FPassing clouds.3 mph69%30.04 "Hg10 mi
1:15 AM72 °FClear.7 mph65%30.04 "Hg10 mi
12:55 AM72 °FPassing clouds.3 mph65%30.04 "Hg10 mi
12:35 AM72 °FPassing clouds.6 mph69%30.05 "Hg10 mi
12:15 AM72 °FPassing clouds.No wind69%30.05 "Hg10 mi
11:55 PM
Mon, Jul 6
72 °FMostly cloudy.No wind69%30.05 "Hg10 mi
11:35 PM73 °FPartly cloudy.10 mph57%30.06 "Hg10 mi
11:15 PM75 °FOvercast.No wind57%30.06 "Hg10 mi
10:55 PM75 °FPartly cloudy.5 mph57%30.07 "Hg10 mi
10:35 PM75 °FThunderstorms. Passing clouds.10 mph54%30.06 "Hg10 mi
10:15 PM75 °FThunderstorms. Partly cloudy.12 mph54%30.05 "Hg10 mi
9:55 PM79 °FThunderstorms. Partly sunny.17 mph45%30.03 "Hg10 mi
9:15 PM84 °FPassing clouds.8 mph31%30.01 "Hg10 mi
8:55 PM86 °FPassing clouds.14 mph29%30.01 "Hg10 mi
8:35 PM86 °FScattered clouds.10 mph31%30.01 "Hg10 mi
8:15 PM88 °FPartly sunny.6 mph29%30.01 "Hg10 mi
7:55 PM88 °FSunny.7 mph29%30.01 "Hg10 mi
7:35 PM88 °FSunny.6 mph29%30.01 "Hg10 mi
7:15 PM88 °FSunny.7 mph27%30.00 "Hg10 mi
6:55 PM88 °FSunny.9 mph29%30.00 "Hg10 mi
6:35 PM86 °FSunny.13 mph31%30.00 "Hg10 mi
6:15 PM88 °FPassing clouds.13 mph29%30.01 "Hg10 mi
5:55 PM88 °FScattered clouds.15 mph27%30.01 "Hg10 mi
5:35 PM88 °FPassing clouds.16 mph27%30.01 "Hg10 mi
5:15 PM90 °FScattered clouds.12 mph27%30.01 "Hg10 mi
4:55 PM91 °FSunny.13 mph26%30.01 "Hg10 mi
4:35 PM91 °FSunny.5 mph26%30.02 "Hg10 mi
3:55 PM90 °FSunny.7 mph27%30.03 "Hg10 mi
3:35 PM90 °FSunny.5 mph27%30.04 "Hg10 mi
3:15 PM88 °FSunny.3 mph29%30.04 "Hg10 mi
2:55 PM86 °FSunny.9 mph31%30.05 "Hg10 mi
2:35 PM84 °FSunny.12 mph33%30.06 "Hg10 mi
2:15 PM84 °FSunny.15 mph33%30.06 "Hg10 mi
Weather by CustomWeather, © 2015

See weather overviewHow to use our weather pages